RH
20 40 32 28 26 23 26 28 33 29 29 31 38 41 37 37 45 44 55 60 59 57 62 64 62 78 81 84 83 84 83 94 93 92 97 96 92 85 86 89 93 97 94 88
36 32 23 23 26 26 27 31 34 31 28 32 35 37 42 54 51 45 48 61 58 55 56 56 57 62 75 87 93 88 84 88 98 97 98 96 90 88 86 84 87 90 91 97
36 24 21 23 26 25 27 30 32 36 39 36 39 42 39 47 47 49 53 57 60 54 50 51 52 41 66 76 81 89 89 92 92 97 99 100 100 100 99 91 86 82 85 99
27 22 25 30 25 24 32 27 30 39 50 51 39 58 43 49 51 47 45 45 51 53 49 45 46 38 35 64 76 87 94 90 90 90 90 91 95 97 100 99 99 99 99 100
30 26 28 30 23 22 29 29 34 37 48 53 50 56 51 51 48 52 45 43 44 51 46 40 39 35 32 36 64 70 80 91 85 90 94 92 94 98 99 100 99 100 100 100
26 25 27 25 24 25 25 37 49 48 64 80 51 53 51 51 40 35 44 41 42 42 40 37 36 33 31 30 30 37 36 58 70 74 71 76 90 96 96 94 92 90 89 94
46 31 24 22 29 30 39 55 75 68 86 72 46 51 49 39 36 36 42 39 38 37 36 37 36 34 31 30 29 26 30 27 25 31 26 20 19 21 24 30 34 48 62 56
56 60 29 23 26 32 36 44 66 61 70 61 47 57 44 43 38 35 35 35 35 35 35 36 36 35 32 31 30 26 23 21 20 20 20 20 20 19 18 17 17 16 16 16
49 52 26 24 24 29 36 54 34 48 57 67 61 45 43 42 41 38 35 34 34 34 34 35 37 36 33 32 32 28 25 23 22 22 22 23 23 22 21 20 20 19 18 18
37 62 37 28 27 28 31 32 49 66 70 74 66 54 56 42 41 46 45 37 34 34 35 37 38 39 36 34 32 30 28 25 25 25 26 26 26 25 23 22 21 20 20 19
32 47 50 36 40 43 43 44 38 45 58 71 80 63 44 38 35 41 42 36 36 33 34 36 39 41 42 38 34 32 30 27 26 27 29 29 28 27 27 29 26 24 22 21
35 60 81 66 33 28 31 35 36 61 63 61 66 61 34 38 35 32 34 40 42 39 38 38 40 42 43 41 38 33 31 30 29 30 32 31 32 67 89 94 81 47 26 24
44 70 89 74 46 43 40 34 33 36 47 62 70 65 36 37 41 41 42 42 41 42 42 41 43 43 43 43 41 36 34 33 40 75 95 64 93 91 95 95 86 66 33 26
43 69 75 87 74 66 74 65 51 51 84 75 60 52 40 36 48 46 46 53 57 54 46 43 43 43 43 44 44 41 38 39 54 97 97 96 96 57 60 78 41 32 30 29
44 73 74 67 63 65 66 66 63 76 70 83 67 67 54 50 45 56 75 70 64 58 48 44 42 43 44 46 46 45 43 41 84 96 94 94 95 95 83 38 36 34 33 32
53 80 67 78 64 64 74 67 67 67 66 66 64 67 49 55 72 75 78 70 66 58 50 46 43 43 46 47 47 48 49 91 96 96 96 96 96 95 96 93 52 36 36 35
54 68 82 82 71 73 84 73 71 64 62 61 78 61 68 74 77 81 67 64 57 53 52 49 45 46 48 49 50 54 94 96 96 96 96 96 96 95 94 90 44 39 36 34
63 66 96 96 81 98 55 48 46 57 53 57 78 83 80 80 76 70 66 66 63 61 58 51 50 51 53 54 60 94 96 96 95 96 96 95 95 94 87 48 43 40 37 35
68 70 96 97 87 69 64 56 51 51 62 90 88 81 87 88 83 71 76 82 80 74 66 62 62 65 80 94 97 96 96 96 96 95 95 95 94 79 50 44 41 38 35 33
66 72 88 99 97 94 57 52 48 51 77 91 91 93 98 92 92 89 95 93 89 91 96 97 96 97 97 95 95 95 95 95 95 96 95 94 72 50 47 44 41 40 40 40
88 93 97 96 97 87 58 50 50 79 80 99 100 99 99 97 99 100 99 94 93 92 92 92 93 93 94 95 95 95 95 95 96 95 90 60 51 47 45 44 46 45 44 44
82 94 96 96 98 92 52 66 83 95 100 99 98 99 100 100 100 98 96 96 95 93 94 93 94 95 96 95 96 96 95 95 94 69 54 49 47 48 47 44 47 51 53 55
84 67 84 80 75 83 97 100 99 98 98 97 99 100 100 100 100 96 96 96 95 95 96 96 96 95 95 95 95 95 92 66 54 49 47 45 43 45 51 55 54 60 64 69
66 74 88 95 89 96 99 100 95 96 97 96 100 100 100 97 96 97 98 98 98 96 96 96 96 96 96 95 85 61 55 51 48 44 44 45 48 57 58 61 63 66 72 73
86 95 99 96 93 98 98 96 96 96 96 99 91 94 100 98 99 98 98 97 96 97 97 97 97 95 82 60 57 54 50 47 47 48 50 53 56 57 57 59 62 65 68 95
93 94 99 96 99 98 97 96 94 94 91 98 99 99 100 100 98 98 97 96 96 96 96 94 70 57 54 52 48 47 48 52 54 55 57 57 58 58 61 63 60 71 79 95
Wind_Speed
4 7 3 4 2 3 5 4 5 4 2 4 5 9 12 11 18 13 11 7 4 4 7 9 10 12 16 18 21 27 27 22 13 7 1 2 3 4 7 11 12 13 18 21
6 2 2 4 4 3 4 4 4 6 6 6 6 11 6 9 6 14 13 10 6 4 6 8 9 10 13 17 20 23 25 25 18 9 6 4 4 7 8 9 11 14 16 17
5 2 4 2 4 6 4 2 3 6 7 4 6 5 1 1 6 8 10 8 8 7 6 5 5 7 9 12 15 18 20 22 22 17 9 6 5 6 7 10 13 16 15 17
3 1 3 4 1 3 5 3 2 5 5 3 4 4 3 3 5 8 12 11 11 9 7 5 4 4 6 7 10 11 12 16 17 15 13 13 12 10 13 11 9 6 3 2
4 2 3 2 2 1 8 8 8 4 1 3 4 3 6 3 4 7 15 15 12 11 10 8 6 4 3 4 5 6 7 8 11 13 12 9 10 13 13 14 13 13 15 15
2 1 1 2 5 4 6 6 5 3 3 2 3 4 5 4 4 1 3 16 16 12 12 10 7 5 3 2 2 4 5 5 6 6 8 10 11 9 8 7 9 12 13 13
5 1 1 1 4 5 8 6 4 5 3 4 4 1 8 4 2 3 5 17 18 13 12 11 10 8 7 4 2 1 1 3 5 5 6 8 8 8 8 10 11 9 9 11
3 7 1 2 1 2 3 3 3 4 3 5 3 5 4 3 3 1 2 14 16 14 12 13 13 12 10 8 5 3 1 1 3 4 6 7 8 8 9 10 11 12 12 13
5 5 1 0 0 2 3 4 2 1 3 1 4 6 1 1 3 4 5 11 17 15 15 16 15 15 14 11 9 7 5 3 1 1 4 5 7 8 10 11 11 11 13 13
1 5 3 1 1 1 1 2 3 2 4 5 5 6 4 2 4 5 8 14 15 17 18 19 18 16 16 14 11 9 7 5 4 2 1 3 5 7 9 10 11 12 12 12
0 2 6 2 2 4 1 0 1 2 4 3 4 6 5 4 2 4 9 14 16 17 20 20 19 16 15 15 13 11 10 8 6 3 2 2 3 6 8 10 12 12 12 12
2 2 4 8 3 2 1 3 4 3 5 3 3 7 6 7 5 3 8 11 11 18 21 21 20 18 16 15 15 13 11 9 7 4 2 3 2 5 8 7 7 11 13 12
3 1 4 5 1 2 2 2 3 3 2 9 4 6 2 6 9 10 10 13 14 17 17 22 23 21 16 15 15 14 13 10 9 7 10 5 7 9 10 10 11 10 10 11
6 3 6 7 7 4 7 5 7 7 5 6 14 17 17 16 6 6 13 16 20 19 15 19 23 21 17 15 14 14 13 13 10 11 9 9 4 5 6 9 9 11 11 11
6 6 7 13 14 11 17 21 17 12 16 11 22 14 21 11 2 8 14 20 20 16 14 16 21 21 18 16 15 15 16 12 15 11 8 9 6 7 6 9 10 11 11 11
4 4 2 4 12 14 16 20 19 17 18 19 22 23 8 11 12 20 20 18 19 17 12 13 22 20 19 18 18 15 13 18 15 12 12 9 8 5 5 7 10 11 11 13
6 4 1 7 2 5 13 13 6 5 5 6 8 2 4 4 7 11 13 13 13 13 12 9 18 19 20 19 16 13 19 16 13 8 9 8 6 5 6 9 12 12 13 13
6 5 2 4 3 5 6 2 6 9 0 3 6 3 2 6 11 7 8 9 9 8 5 5 13 16 16 14 13 18 14 10 8 9 8 6 6 7 9 12 13 13 14 16
15 6 3 3 5 11 10 2 2 2 2 3 1 4 5 16 8 2 4 7 8 6 1 5 8 9 10 11 14 10 7 6 7 7 5 6 8 11 12 13 14 14 16 16
2 2 6 4 4 6 1 1 5 3 5 3 7 6 9 16 7 1 9 13 11 8 8 7 7 8 9 8 4 4 6 6 7 5 6 8 11 13 13 14 15 16 17 18
3 2 9 10 7 8 2 2 3 2 3 1 7 8 9 4 6 13 12 11 9 7 7 6 5 3 2 3 3 4 5 6 6 8 10 11 12 13 14 15 17 17 17 17
8 7 4 3 5 9 4 1 5 1 2 6 6 9 9 11 11 11 11 9 7 4 2 2 1 2 3 3 3 4 6 7 9 12 13 13 14 14 15 15 15 15 15 15
3 6 4 8 5 4 3 1 1 4 3 6 9 8 7 9 8 9 7 4 3 3 3 2 2 3 4 3 5 6 8 11 12 13 13 13 13 13 12 13 13 12 13 14
3 2 2 2 4 3 3 3 1 5 6 8 8 9 8 6 7 5 5 4 5 4 4 3 3 4 6 6 8 10 12 13 13 13 13 12 11 10 11 11 11 13 14 15
2 4 3 7 4 5 3 2 4 8 7 7 10 7 4 5 4 4 5 5 4 5 5 5 5 6 8 9 11 12 13 13 12 12 11 11 11 12 12 12 13 13 12 13
8 2 3 3 3 1 2 4 6 6 6 5 5 5 3 4 4 5 5 5 5 6 7 7 8 9 10 11 12 12 12 12 12 11 11 11 12 11 11 12 10 8 12 13
Wind_Direction
38 61 35 337 320 243 276 270 292 298 236 315 246 266 269 232 199 191 185 191 217 300 324 337 354 3 16 19 19 19 20 30 36 50 56 149 224 260 276 267 268 283 268 264
28 70 296 291 314 281 316 290 333 297 318 316 281 284 317 150 179 196 199 197 225 262 300 329 351 357 9 17 25 23 21 28 34 46 35 344 310 299 289 285 284 282 283 285
124 242 314 306 17 5 334 107 303 262 321 304 321 331 122 98 130 169 194 217 225 245 267 299 333 352 359 7 21 26 25 33 36 38 43 18 344 302 280 287 287 282 289 291
97 259 344 331 88 47 312 196 306 299 30 304 69 286 305 177 205 218 217 219 222 233 247 263 291 326 358 14 28 31 30 37 34 36 40 54 51 41 58 53 47 35 20 348
279 347 2 338 294 69 250 306 285 222 217 8 317 58 272 128 267 254 227 219 217 234 245 249 260 284 342 20 30 34 29 39 43 39 41 48 65 72 65 58 54 52 55 60
286 72 152 242 287 222 295 317 5 81 95 7 237 116 279 210 201 285 215 211 211 227 240 243 248 262 280 320 21 49 47 48 46 43 58 59 62 67 66 62 49 43 38 35
335 267 263 315 327 358 14 19 349 1 7 240 218 28 248 225 163 149 194 200 210 231 241 239 245 253 262 266 272 327 45 61 67 64 66 65 62 57 53 48 45 45 40 30
7 332 248 348 105 279 314 105 117 301 299 285 278 242 265 46 63 17 275 216 214 233 246 249 250 253 253 256 255 248 239 113 90 78 68 63 61 56 54 52 46 41 46 42
6 282 21 352 43 88 332 53 180 263 290 349 259 281 303 303 285 270 221 198 220 235 248 258 255 251 249 247 247 243 239 233 219 61 55 50 47 48 44 41 40 39 34 32
334 297 262 184 96 41 110 221 30 23 322 296 292 289 235 274 268 237 251 242 245 248 252 256 258 254 250 245 244 248 248 247 249 252 14 34 33 32 37 31 28 27 28 25
315 143 293 23 203 196 32 31 195 196 165 235 295 267 214 202 163 232 265 269 267 261 266 261 257 253 252 246 244 242 243 242 244 249 301 337 31 32 27 22 16 17 12 11
207 183 270 250 324 332 149 166 150 140 273 247 222 267 284 173 124 22 318 329 319 282 279 266 251 249 252 248 243 240 237 236 231 222 320 302 315 291 307 328 357 358 356 359
186 265 310 313 5 351 78 221 220 233 209 227 223 258 184 123 62 53 52 28 5 343 293 252 236 242 252 250 243 239 237 233 228 238 247 256 307 325 339 355 355 349 344 348
152 221 195 250 257 279 289 251 234 245 244 268 232 272 282 292 340 35 35 5 343 341 325 245 231 239 241 248 247 242 235 229 242 276 275 268 297 333 331 333 332 338 341 344
178 224 223 247 266 272 268 277 269 236 243 246 272 265 273 301 96 60 1 353 348 349 346 248 238 234 234 234 239 236 236 235 254 259 243 259 254 274 327 329 329 328 331 335
196 263 289 252 255 250 267 267 262 250 252 248 257 268 320 64 20 352 342 342 340 341 322 268 233 229 228 226 227 238 249 272 266 255 252 260 262 257 285 317 314 318 324 327
174 198 221 271 39 301 279 251 229 211 206 213 224 172 26 351 332 329 333 343 343 330 321 281 220 216 213 218 229 244 278 270 262 264 265 273 282 300 325 321 314 316 318 320
187 159 182 277 2 248 244 268 228 215 123 347 102 96 38 353 324 305 343 347 344 334 332 226 211 205 204 212 228 280 283 275 267 272 281 291 307 336 328 310 313 316 318 321
220 165 214 239 225 290 285 231 199 238 210 25 112 24 344 339 315 212 360 354 346 347 283 221 209 210 221 245 274 276 262 270 280 281 289 314 337 322 309 311 313 315 315 314
56 225 193 164 235 252 211 11 39 35 255 48 14 329 342 345 328 29 341 324 315 293 274 259 251 261 267 273 265 266 271 274 274 300 316 333 315 305 309 311 314 315 312 311
142 201 221 227 247 276 181 152 82 163 292 328 339 344 331 320 299 303 309 307 310 300 293 292 291 281 267 278 270 262 270 275 299 316 327 307 301 306 310 312 314 313 313 314
173 176 196 205 236 267 120 149 183 129 18 338 323 318 309 307 304 288 295 295 292 280 283 298 287 274 281 289 278 268 276 306 318 311 304 304 306 310 309 310 314 317 319 321
220 208 191 191 217 91 57 248 160 342 319 304 316 312 315 317 287 284 279 271 265 271 274 276 274 279 293 294 287 308 317 306 301 303 304 306 310 312 312 318 322 324 326 325
269 354 242 360 50 79 172 123 38 330 331 314 316 321 327 312 272 258 247 229 251 263 264 268 274 281 291 314 320 306 299 302 305 307 309 312 315 317 319 320 321 323 325 328
180 129 196 258 291 137 102 68 337 328 317 310 326 324 312 274 239 232 226 236 250 269 281 285 288 300 308 301 300 301 301 305 309 312 315 318 319 321 321 322 327 324 327 330
197 210 212 265 109 338 189 278 314 308 314 324 299 300 237 228 224 229 235 244 266 281 287 294 302 299 299 299 301 301 304 307 312 316 318 318 319 322 324 326 328 328 325 321